TimeADT,TemperatureF,Dew PointF,Humidity,Sea Level PressureIn,VisibilityMPH,Wind Direction,Wind SpeedMPH,Gust SpeedMPH,PrecipitationIn,Events,Conditions,WindDirDegrees,DateUTC
12:00 AM,40.5,36.9,87,29.83,-9999.0,NW,3.5,-,N/A,,Unknown,320,2012-10-13 03:00:00
1:00 AM,39.4,35.2,85,29.83,-9999.0,NW,2.3,-,N/A,,Unknown,320,2012-10-13 04:00:00
2:00 AM,38.8,34.5,84,29.83,-9999.0,West,4.6,-,N/A,,Unknown,260,2012-10-13 05:00:00
3:00 AM,39,34,75,29.83,,West,3.5,,,,,280,2012-10-13 06:00:00
3:00 AM,39.4,33.8,80,29.83,-9999.0,West,3.5,-,N/A,,Unknown,280,2012-10-13 06:00:00
4:00 AM,39.9,33.6,78,29.84,-9999.0,West,4.6,-,N/A,,Unknown,270,2012-10-13 07:00:00
6:00 AM,36.9,33.4,87,29.88,-9999.0,West,3.5,-,N/A,,Unknown,280,2012-10-13 09:00:00
7:00 AM,37.2,33.4,86,29.90,-9999.0,NW,4.6,-,0.04,,Unknown,310,2012-10-13 10:00:00
8:00 AM,38.7,34.0,83,29.92,-9999.0,WNW,5.8,-,N/A,,Unknown,290,2012-10-13 11:00:00
9:00 AM,37,34,86,29.94,,NNW,3.5,,,,,330,2012-10-13 12:00:00
9:00 AM,36.9,34.3,91,29.94,-9999.0,NNW,3.5,-,0.05,,Unknown,330,2012-10-13 12:00:00
10:00 AM,39.2,34.3,83,29.96,-9999.0,West,8.1,20.7,N/A,,Unknown,280,2012-10-13 13:00:00
11:00 AM,44.8,38.7,79,29.94,-9999.0,WNW,2.3,-,0.06,,Unknown,300,2012-10-13 14:00:00
12:00 PM,42.1,32.9,70,29.96,-9999.0,West,9.2,24.2,N/A,,Unknown,270,2012-10-13 15:00:00
1:00 PM,40.8,33.1,74,29.95,-9999.0,NNW,3.5,-,0.04,,Unknown,330,2012-10-13 16:00:00
2:00 PM,41.7,34.3,75,29.96,-9999.0,WNW,6.9,-,0.04,,Unknown,300,2012-10-13 17:00:00
3:00 PM,41,33,65,29.96,,WNW,5.8,,,,,300,2012-10-13 18:00:00
3:00 PM,41.2,33.3,73,29.96,-9999.0,WNW,5.8,-,N/A,,Unknown,300,2012-10-13 18:00:00
4:00 PM,41.7,30.9,66,29.98,-9999.0,WNW,8.1,21.9,N/A,,Unknown,290,2012-10-13 19:00:00
5:00 PM,37.6,33.1,84,30.00,-9999.0,WNW,5.8,-,0.04,,Unknown,300,2012-10-13 20:00:00
6:00 PM,38.8,31.5,75,30.01,-9999.0,NW,5.8,-,N/A,,Unknown,310,2012-10-13 21:00:00
7:00 PM,39.7,28.8,65,30.04,-9999.0,WNW,6.9,-,N/A,,Unknown,290,2012-10-13 22:00:00
8:00 PM,39.7,27.0,60,30.06,-9999.0,WNW,5.8,-,N/A,,Unknown,290,2012-10-13 23:00:00
9:00 PM,40.1,29.1,65,30.08,-9999.0,WNW,9.2,24.2,N/A,,Unknown,290,2012-10-14 00:00:00
10:00 PM,40.5,27.7,60,30.08,-9999.0,WNW,10.4,24.2,N/A,,Unknown,290,2012-10-14 01:00:00
11:00 PM,39.7,29.7,67,30.10,-9999.0,WNW,8.1,20.7,0.03,,Unknown,290,2012-10-14 02:00:00